{"data":{"norad_id":46174,"intl_designator":"2020-057BK","name":"STARLINK-1641","alt_names":[],"object_type":"PAYLOAD","status":"ACTIVE","operator":null,"country":"US","launch_date":"2020-08-18","launch_site_code":"AFETR","launch_vehicle":null,"mission":null,"orbit_class":"UNKNOWN","rcs_meters":null,"size_class":null,"mass_kg":null,"dimensions":null,"purposes":["comms"],"wikipedia_slug":null,"has_3d_model":false,"image_url":null,"decayed_at":null,"tle_current":{"epoch":"2026-09-20T06:00:02.000160Z","epoch_age_seconds":43511,"freshness":"FRESH","line1":"1 46174U 20057BK  26263.25002315  .00199934  00000+0  73330-3 0  9996","line2":"2 46174  53.0358  50.9625 0002969 273.9614  57.8529 15.87251790  5942","mean_motion":15.8725179,"eccentricity":0.0002969,"inclination_deg":53.0358,"raan_deg":50.9625,"arg_perigee_deg":273.9614,"mean_anomaly_deg":57.8529,"bstar":0.0007333,"rev_number":594,"period_min":90.722846184347,"perigee_km":308.00603538974,"apogee_km":311.97744623604,"semimajor_km":6688.1287408129,"source":"CELESTRAK","updated_at":"2026-09-20T09:00:38.467160Z"}}}